This demonstration page uses our WeatherBlox Daily Observations layout. Learn more.

Left ArrowRight Arrow

53.62937, 11.41316

Hourly Observations for November 6, 2022

Temp ( °F °C ) Dew Point ( °F °C ) Humidity (%) Winds ( mph kmh ) Pressure ( in mb ) Visibility ( mi km ) Precip ( " mm )
12:20 am 00:20 Cloudy 46 8 41 5 81 81 S 6 9 29.97 1015 6 10 0.00 0.00
12:50 am 00:50 Cloudy 46 8 41 5 81 81 S 6 9 29.97 1015 6 10 0.00 0.00
1:20 am 01:20 Cloudy 46 8 41 5 81 81 S 6 9 29.97 1015 6 10 0.00 0.00
1:50 am 01:50 Cloudy 46 8 41 5 81 81 S 6 9 29.97 1015 6 10 0.00 0.00
2:20 am 02:20 Cloudy 46 8 41 5 81 81 S 7 11 29.94 1014 6 10 0.00 0.00
2:50 am 02:50 Cloudy 46 8 41 5 81 81 S 7 11 29.94 1014 6 10 0.00 0.00
3:20 am 03:20 Cloudy 46 8 41 5 81 81 VRB 6 9 29.94 1014 6 10 0.00 0.00
3:50 am 03:50 Cloudy 46 8 41 5 81 81 VRB 6 9 29.91 1013 6 10 0.00 0.00
4:20 am 04:20 Cloudy 48 9 41 5 76 76 VRB 7 11 29.91 1013 6 10 0.00 0.00
4:50 am 04:50 Mostly Cloudy 46 8 41 5 81 81 S 6 9 29.91 1013 6 10 0.00 0.00
5:20 am 05:20 Cloudy 48 9 41 5 76 76 VRB 6 9 29.91 1013 6 10 0.00 0.00
5:50 am 05:50 Cloudy 48 9 41 5 76 76 SSW 7 11 29.91 1013 6 10 0.00 0.00
6:20 am 06:20 Cloudy 48 9 41 5 76 76 VRB 6 9 29.91 1013 6 10 0.00 0.00
6:50 am 06:50 Cloudy 48 9 41 5 76 76 VRB 7 11 29.88 1012 6 10 0.00 0.00
7:20 am 07:20 Cloudy 48 9 41 5 76 76 VRB 7 11 29.91 1013 6 10 0.00 0.00
7:50 am 07:50 Mostly Cloudy 48 9 41 5 76 76 VRB 7 11 29.91 1013 6 10 0.00 0.00
8:20 am 08:20 Mostly Cloudy with Light Rain 48 9 43 6 81 81 VRB 6 9 29.91 1013 6 10 0.00 0.00
8:50 am 08:50 Cloudy 48 9 41 5 76 76 VRB 6 9 29.91 1013 6 10 0.00 0.00
9:20 am 09:20 Cloudy 48 9 41 5 76 76 VRB 7 11 29.91 1013 6 10 0.00 0.00
9:50 am 09:50 Mostly Cloudy 48 9 43 6 81 81 VRB 6 9 29.91 1013 6 10 0.00 0.00
10:20 am 10:20 Partly Cloudy 50 10 43 6 76 76 VRB 6 9 29.88 1012 6 10 0.00 0.00
10:50 am 10:50 Mostly Sunny 52 11 43 6 71 71 SSW 6 9 29.88 1012 6 10 0.00 0.00
11:20 am 11:20 Mostly Cloudy 52 11 43 6 71 71 VRB 6 9 29.88 1012 6 10 0.00 0.00
11:50 am 11:50 Mostly Cloudy 54 12 45 7 71 71 SSW 6 9 29.88 1012 6 10 0.00 0.00
12:20 pm 12:20 Mostly Cloudy 54 12 45 7 71 71 SSW 6 9 29.88 1012 6 10 0.00 0.00
12:50 pm 12:50 Mostly Sunny 54 12 45 7 71 71 VRB 5 7 29.85 1011 6 10 0.00 0.00
1:20 pm 13:20 Mostly Sunny 54 12 45 7 71 71 VRB 5 7 29.85 1011 6 10 0.00 0.00
1:50 pm 13:50 Mostly Sunny 55 13 45 7 67 67 VRB 8 13 29.85 1011 6 10 0.00 0.00
2:20 pm 14:20 Mostly Sunny 54 12 45 7 71 71 S 6 9 29.82 1010 6 10 0.00 0.00
2:50 pm 14:50 Mostly Sunny 55 13 45 7 67 67 VRB 6 9 29.82 1010 6 10 0.00 0.00
3:20 pm 15:20 Mostly Sunny 54 12 45 7 71 71 S 8 13 29.82 1010 6 10 0.00 0.00
3:50 pm 15:50 Mostly Sunny 54 12 45 7 71 71 S 6 9 29.82 1010 6 10 0.00 0.00
4:20 pm 16:20 Mostly Sunny 52 11 45 7 76 76 SSE 7 11 29.79 1009 6 10 0.00 0.00
4:50 pm 16:50 Mostly Clear 52 11 45 7 76 76 S 8 13 29.79 1009 6 10 0.00 0.00
5:20 pm 17:20 Mostly Clear 52 11 45 7 76 76 S 7 11 29.79 1009 6 10 0.00 0.00
5:50 pm 17:50 Mostly Clear 52 11 43 6 71 71 VRB 7 11 29.79 1009 6 10 0.00 0.00
6:20 pm 18:20 Mostly Clear 52 11 41 5 66 66 S 6 9 29.79 1009 6 10 0.00 0.00
6:50 pm 18:50 Mostly Clear 50 10 41 5 71 71 S 5 7 29.79 1009 6 10 0.00 0.00
7:20 pm 19:20 Mostly Clear 50 10 43 6 76 76 S 5 7 29.76 1008 6 10 0.00 0.00
7:50 pm 19:50 Mostly Clear 48 9 43 6 81 81 VRB 6 9 29.77 1008 6 10 0.00 0.00
8:20 pm 20:20 Mostly Clear 48 9 41 5 76 76 S 6 9 29.77 1008 6 10 0.00 0.00
8:50 pm 20:50 Mostly Clear 48 9 41 5 76 76 VRB 6 9 29.74 1007 6 10 0.00 0.00
9:20 pm 21:20 Cloudy 48 9 41 5 76 76 S 6 9 29.74 1007 6 10 0.00 0.00
9:50 pm 21:50 Cloudy 48 9 41 5 76 76 S 6 9 29.74 1007 6 10 0.00 0.00
10:20 pm 22:20 Cloudy 50 10 39 4 66 66 S 6 9 29.74 1007 6 10 0.00 0.00
10:50 pm 22:50 Cloudy 48 9 39 4 71 71 S 7 11 29.74 1007 6 10 0.00 0.00
11:20 pm 23:20 Cloudy 48 9 41 5 76 76 S 7 11 29.71 1006 6 10 0.00 0.00
11:50 pm 23:50 Cloudy 48 9 41 5 76 76 S 6 9 29.71 1006 6 10 0.00 0.00

Powered by AerisWeather